QPF
0.00 0.00 0.01 0.02 0.03 0.03 0.02 0.01 0.01 0.01 0.01 0.02 0.03 0.01 0.00 0.00 0.00 0.00 0.00 0.00 0.00 0.00 0.00 0.00 0.00 0.00 0.00 0.00 0.00 0.00 0.00 0.00 0.00 0.00 0.00 0.00 0.00 0.00 0.00 0.00 0.00 0.00 0.00 0.00 0.00 0.00 0.00
0.00 0.00 0.00 0.00 0.01 0.02 0.02 0.02 0.02 0.01 0.01 0.01 0.03 0.02 0.00 0.00 0.00 0.00 0.00 0.00 0.00 0.00 0.00 0.00 0.00 0.00 0.00 0.00 0.00 0.00 0.00 0.00 0.00 0.00 0.00 0.00 0.00 0.00 0.00 0.00 0.00 0.00 0.00 0.00 0.00 0.00 0.00
0.00 0.00 0.00 0.00 0.00 0.00 0.01 0.02 0.03 0.02 0.01 0.01 0.02 0.02 0.01 0.00 0.00 0.00 0.00 0.00 0.00 0.00 0.00 0.00 0.00 0.00 0.00 0.00 0.00 0.00 0.00 0.00 0.00 0.00 0.00 0.00 0.00 0.02 0.01 0.00 0.00 0.00 0.00 0.00 0.00 0.00 0.00
0.00 0.00 0.00 0.00 0.00 0.00 0.00 0.02 0.02 0.02 0.01 0.01 0.01 0.02 0.04 0.02 0.00 0.00 0.00 0.00 0.01 0.00 0.00 0.00 0.00 0.00 0.00 0.00 0.00 0.00 0.00 0.00 0.00 0.00 0.00 0.00 0.00 0.02 0.01 0.00 0.00 0.00 0.00 0.00 0.00 0.00 0.00
0.00 0.00 0.00 0.00 0.00 0.00 0.00 0.01 0.01 0.02 0.03 0.02 0.03 0.03 0.03 0.03 0.01 0.00 0.00 0.01 0.01 0.00 0.00 0.01 0.00 0.00 0.00 0.00 0.00 0.00 0.00 0.00 0.00 0.00 0.00 0.00 0.00 0.00 0.00 0.01 0.01 0.00 0.00 0.00 0.00 0.00 0.00
0.00 0.00 0.00 0.00 0.00 0.00 0.00 0.00 0.00 0.02 0.03 0.04 0.03 0.04 0.04 0.03 0.02 0.00 0.01 0.04 0.02 0.00 0.00 0.01 0.01 0.00 0.00 0.00 0.00 0.00 0.00 0.00 0.00 0.00 0.00 0.00 0.00 0.00 0.00 0.01 0.00 0.00 0.00 0.00 0.00 0.00 0.00
0.00 0.00 0.00 0.00 0.00 0.00 0.00 0.00 0.00 0.01 0.02 0.03 0.04 0.05 0.08 0.07 0.02 0.01 0.01 0.01 0.00 0.00 0.01 0.00 0.00 0.00 0.00 0.00 0.00 0.00 0.00 0.00 0.00 0.00 0.00 0.00 0.00 0.00 0.00 0.00 0.00 0.00 0.00 0.00 0.00 0.00 0.00
0.00 0.00 0.00 0.00 0.00 0.00 0.00 0.00 0.00 0.00 0.01 0.03 0.04 0.04 0.06 0.08 0.04 0.01 0.00 0.00 0.00 0.00 0.00 0.00 0.00 0.00 0.00 0.00 0.00 0.00 0.00 0.00 0.00 0.00 0.00 0.00 0.00 0.00 0.00 0.00 0.00 0.00 0.00 0.00 0.00 0.00 0.00
0.00 0.00 0.00 0.01 0.01 0.01 0.01 0.00 0.00 0.00 0.01 0.02 0.04 0.05 0.08 0.08 0.04 0.02 0.00 0.00 0.00 0.00 0.00 0.00 0.00 0.00 0.00 0.00 0.00 0.00 0.00 0.00 0.00 0.00 0.00 0.00 0.00 0.00 0.00 0.00 0.00 0.00 0.00 0.00 0.00 0.00 0.00
0.00 0.00 0.00 0.00 0.00 0.01 0.03 0.02 0.01 0.01 0.01 0.01 0.02 0.06 0.10 0.10 0.03 0.00 0.00 0.00 0.00 0.00 0.00 0.00 0.00 0.00 0.00 0.01 0.00 0.00 0.00 0.00 0.00 0.00 0.00 0.00 0.00 0.00 0.00 0.00 0.00 0.00 0.00 0.00 0.00 0.00 0.00
0.00 0.01 0.01 0.00 0.00 0.03 0.05 0.05 0.04 0.03 0.02 0.01 0.01 0.05 0.07 0.03 0.00 0.00 0.00 0.00 0.00 0.00 0.00 0.00 0.00 0.00 0.00 0.00 0.00 0.00 0.00 0.00 0.00 0.00 0.00 0.00 0.00 0.00 0.00 0.00 0.00 0.00 0.00 0.00 0.00 0.01 0.01
0.00 0.01 0.01 0.01 0.02 0.05 0.07 0.07 0.06 0.05 0.01 0.01 0.02 0.03 0.05 0.03 0.01 0.00 0.00 0.00 0.00 0.00 0.00 0.00 0.00 0.00 0.00 0.00 0.00 0.00 0.00 0.00 0.00 0.01 0.00 0.00 0.00 0.00 0.00 0.00 0.00 0.00 0.01 0.01 0.01 0.02 0.01
0.01 0.01 0.01 0.01 0.02 0.03 0.06 0.04 0.03 0.01 0.01 0.01 0.01 0.02 0.03 0.01 0.00 0.00 0.00 0.00 0.00 0.00 0.00 0.00 0.00 0.00 0.00 0.00 0.00 0.00 0.00 0.00 0.00 0.01 0.00 0.00 0.00 0.00 0.00 0.00 0.00 0.01 0.02 0.01 0.01 0.01 0.00
0.01 0.02 0.02 0.01 0.02 0.03 0.03 0.01 0.00 0.01 0.01 0.01 0.00 0.02 0.04 0.02 0.00 0.00 0.00 0.00 0.00 0.00 0.00 0.00 0.00 0.00 0.00 0.00 0.00 0.00 0.01 0.00 0.00 0.00 0.00 0.00 0.00 0.00 0.00 0.00 0.00 0.00 0.01 0.00 0.00 0.00 0.00
0.02 0.03 0.01 0.01 0.02 0.01 0.01 0.01 0.05 0.07 0.04 0.04 0.01 0.04 0.03 0.01 0.00 0.00 0.00 0.00 0.00 0.00 0.00 0.00 0.00 0.00 0.00 0.00 0.00 0.01 0.01 0.00 0.00 0.00 0.00 0.00 0.00 0.00 0.00 0.00 0.00 0.01 0.01 0.00 0.00 0.00 0.01
0.03 0.03 0.01 0.02 0.01 0.00 0.03 0.03 0.07 0.07 0.06 0.05 0.02 0.04 0.02 0.01 0.00 0.00 0.00 0.00 0.00 0.00 0.00 0.00 0.00 0.00 0.00 0.00 0.00 0.00 0.00 0.00 0.00 0.00 0.00 0.00 0.00 0.00 0.00 0.00 0.00 0.00 0.01 0.02 0.01 0.00 0.00
0.03 0.02 0.01 0.01 0.00 0.00 0.01 0.05 0.07 0.06 0.04 0.02 0.01 0.04 0.02 0.01 0.00 0.00 0.00 0.00 0.00 0.00 0.00 0.00 0.00 0.00 0.00 0.00 0.00 0.00 0.00 0.00 0.00 0.00 0.00 0.00 0.00 0.00 0.00 0.01 0.00 0.00 0.01 0.01 0.00 0.00 0.01
0.02 0.03 0.01 0.01 0.00 0.00 0.02 0.06 0.04 0.04 0.02 0.01 0.03 0.01 0.01 0.00 0.00 0.00 0.00 0.00 0.00 0.00 0.00 0.00 0.00 0.00 0.00 0.00 0.00 0.00 0.00 0.00 0.00 0.00 0.00 0.00 0.00 0.00 0.00 0.00 0.00 0.00 0.00 0.00 0.01 0.00 0.00
0.02 0.02 0.01 0.00 0.00 0.00 0.02 0.04 0.03 0.05 0.04 0.03 0.03 0.02 0.00 0.00 0.00 0.00 0.00 0.00 0.00 0.00 0.00 0.00 0.00 0.00 0.00 0.00 0.00 0.00 0.00 0.00 0.00 0.00 0.00 0.00 0.00 0.00 0.00 0.00 0.00 0.00 0.00 0.00 0.00 0.01 0.00
0.03 0.02 0.01 0.00 0.00 0.00 0.02 0.04 0.02 0.02 0.01 0.04 0.02 0.01 0.01 0.01 0.00 0.00 0.00 0.00 0.00 0.00 0.00 0.00 0.01 0.01 0.01 0.00 0.00 0.00 0.00 0.00 0.00 0.00 0.00 0.00 0.00 0.00 0.00 0.00 0.00 0.00 0.00 0.00 0.00 0.01 0.00
0.03 0.03 0.02 0.00 0.00 0.00 0.02 0.03 0.01 0.01 0.01 0.02 0.02 0.01 0.00 0.00 0.00 0.00 0.00 0.00 0.00 0.00 0.00 0.00 0.00 0.00 0.01 0.00 0.00 0.00 0.00 0.00 0.00 0.00 0.00 0.00 0.00 0.00 0.00 0.00 0.00 0.00 0.00 0.00 0.00 0.00 0.00
0.03 0.03 0.02 0.01 0.00 0.00 0.02 0.02 0.01 0.01 0.01 0.01 0.01 0.00 0.00 0.00 0.00 0.00 0.00 0.00 0.00 0.00 0.00 0.00 0.00 0.00 0.00 0.00 0.00 0.00 0.00 0.00 0.00 0.00 0.00 0.00 0.00 0.00 0.00 0.00 0.00 0.00 0.00 0.00 0.00 0.00 0.00
0.02 0.03 0.02 0.01 0.00 0.00 0.01 0.02 0.02 0.02 0.02 0.01 0.00 0.00 0.00 0.00 0.00 0.00 0.00 0.00 0.00 0.00 0.00 0.00 0.00 0.00 0.00 0.00 0.00 0.00 0.00 0.00 0.00 0.00 0.00 0.00 0.00 0.00 0.00 0.00 0.00 0.01 0.00 0.00 0.00 0.00 0.00
0.02 0.03 0.03 0.00 0.00 0.00 0.01 0.02 0.02 0.01 0.02 0.01 0.00 0.00 0.00 0.00 0.00 0.00 0.00 0.00 0.00 0.00 0.00 0.00 0.00 0.00 0.00 0.00 0.00 0.00 0.00 0.00 0.00 0.00 0.00 0.00 0.00 0.00 0.00 0.00 0.00 0.00 0.00 0.00 0.00 0.00 0.00
0.02 0.04 0.02 0.00 0.00 0.00 0.00 0.01 0.02 0.01 0.01 0.00 0.00 0.00 0.00 0.00 0.00 0.00 0.00 0.00 0.00 0.00 0.00 0.00 0.00 0.00 0.00 0.00 0.01 0.01 0.00 0.00 0.00 0.00 0.00 0.00 0.00 0.00 0.00 0.00 0.00 0.00 0.00 0.00 0.00 0.00 0.00
0.03 0.04 0.02 0.00 0.00 0.00 0.00 0.01 0.01 0.01 0.01 0.00 0.00 0.00 0.00 0.00 0.00 0.00 0.00 0.00 0.00 0.00 0.00 0.00 0.00 0.00 0.00 0.01 0.02 0.01 0.00 0.00 0.00 0.00 0.00 0.00 0.00 0.00 0.00 0.00 0.00 0.00 0.00 0.00 0.00 0.00 0.00
0.03 0.03 0.02 0.00 0.00 0.00 0.00 0.01 0.01 0.01 0.01 0.00 0.00 0.00 0.00 0.00 0.00 0.00 0.00 0.00 0.00 0.00 0.00 0.00 0.00 0.00 0.01 0.02 0.01 0.00 0.00 0.00 0.00 0.00 0.00 0.00 0.00 0.00 0.00 0.00 0.00 0.00 0.00 0.00 0.00 0.00 0.00
0.03 0.02 0.02 0.00 0.00 0.00 0.00 0.00 0.01 0.01 0.01 0.01 0.00 0.00 0.00 0.00 0.00 0.00 0.00 0.00 0.00 0.00 0.00 0.00 0.00 0.00 0.01 0.02 0.00 0.00 0.00 0.00 0.00 0.00 0.00 0.00 0.00 0.00 0.00 0.00 0.00 0.00 0.00 0.00 0.00 0.00 0.00
0.03 0.02 0.02 0.00 0.00 0.00 0.00 0.00 0.01 0.01 0.01 0.00 0.00 0.00 0.00 0.00 0.00 0.00 0.00 0.00 0.00 0.00 0.00 0.00 0.00 0.00 0.00 0.00 0.00 0.00 0.00 0.00 0.00 0.00 0.00 0.00 0.00 0.00 0.00 0.00 0.00 0.00 0.00 0.00 0.00 0.00 0.00
MSLP
1017.05 1016.59 1016.12 1015.74 1015.19 1014.48 1014.23 1013.65 1013.46 1013.46 1013.28 1013.11 1013.14 1013.42 1013.62 1013.88 1014.18 1014.42 1014.58 1014.57 1014.52 1014.65 1014.62 1014.41 1014.17 1014.13 1014.26 1014.33 1013.21 1011.83 1011.75 1011.73 1011.36 1012.17 1012.84 1013.59 1013.97 1014.28 1014.49 1014.22 1013.89 1013.55 1013.06 1012.60 1012.07 1011.74 1011.38
1017.49 1016.97 1016.50 1015.92 1015.36 1014.67 1014.10 1013.58 1013.06 1012.87 1012.81 1012.69 1012.56 1012.78 1013.04 1013.40 1013.69 1014.04 1014.29 1014.39 1014.41 1014.54 1014.57 1014.40 1014.30 1014.27 1014.36 1014.28 1012.30 1011.89 1012.09 1012.20 1012.20 1012.57 1013.01 1013.45 1013.87 1014.03 1014.42 1014.27 1014.10 1013.44 1013.12 1012.81 1012.31 1011.79 1011.40
1017.58 1017.13 1016.53 1015.95 1015.33 1014.77 1014.18 1013.55 1013.06 1012.49 1012.31 1012.18 1012.04 1012.06 1012.45 1012.84 1013.26 1013.61 1013.91 1014.16 1014.27 1014.39 1014.50 1014.42 1014.37 1014.39 1014.39 1013.00 1012.09 1012.00 1012.17 1012.50 1012.64 1012.65 1013.06 1013.34 1013.71 1014.05 1014.07 1014.10 1013.78 1013.45 1013.30 1012.77 1012.27 1011.91 1011.33
1017.39 1016.89 1016.55 1015.97 1015.34 1014.71 1014.11 1013.49 1012.99 1012.56 1011.89 1011.62 1011.50 1011.48 1011.81 1012.26 1012.76 1013.15 1013.50 1013.83 1014.03 1014.27 1014.49 1014.46 1014.41 1014.56 1013.92 1012.40 1012.17 1012.33 1012.44 1012.68 1012.56 1012.84 1012.89 1013.04 1013.33 1014.09 1014.20 1013.88 1013.78 1013.79 1013.63 1013.09 1011.77 1011.36 1011.11
1017.47 1016.97 1016.46 1015.98 1015.36 1014.70 1013.96 1013.37 1012.71 1012.20 1011.74 1011.05 1010.93 1010.82 1011.06 1011.64 1012.27 1012.82 1013.21 1013.59 1013.85 1014.20 1014.46 1014.44 1014.64 1014.66 1013.39 1012.21 1012.22 1011.91 1012.22 1012.58 1012.59 1012.85 1012.98 1013.03 1013.29 1013.82 1014.06 1014.31 1014.30 1013.85 1013.50 1013.17 1012.38 1011.32 1011.02
1017.16 1016.60 1016.14 1015.73 1015.17 1014.55 1013.82 1013.21 1012.46 1011.84 1011.36 1010.84 1010.38 1010.36 1010.46 1010.82 1011.72 1012.37 1012.94 1013.48 1013.88 1014.25 1014.51 1014.55 1014.39 1014.89 1013.05 1012.08 1011.87 1011.85 1012.02 1012.35 1012.76 1013.03 1013.35 1013.38 1013.70 1014.00 1014.42 1014.67 1014.05 1014.21 1014.21 1013.53 1012.81 1011.79 1011.31
1017.04 1016.48 1016.06 1015.25 1014.80 1014.15 1013.56 1012.93 1012.37 1011.65 1011.07 1010.58 1010.03 1009.81 1009.87 1010.16 1011.06 1011.91 1012.93 1013.87 1014.43 1014.78 1014.39 1013.58 1013.26 1012.88 1012.18 1011.86 1011.59 1011.89 1011.89 1012.55 1013.00 1013.43 1013.90 1013.95 1014.14 1013.79 1014.18 1014.63 1014.76 1014.74 1014.50 1014.09 1013.50 1012.50 1012.14
1016.93 1016.20 1015.90 1015.03 1014.25 1013.91 1013.14 1012.53 1011.98 1011.35 1010.65 1010.15 1009.78 1009.37 1009.38 1009.66 1010.50 1011.49 1012.54 1013.10 1013.22 1013.39 1013.55 1013.15 1013.06 1012.82 1012.18 1012.13 1011.92 1011.75 1011.91 1012.75 1013.32 1013.87 1014.32 1014.66 1013.83 1013.95 1014.17 1014.61 1014.91 1014.97 1014.77 1014.21 1013.75 1013.12 1012.52
1016.69 1015.97 1015.33 1014.79 1014.03 1013.45 1012.83 1012.14 1011.43 1010.86 1010.21 1009.62 1009.49 1009.27 1008.95 1009.23 1010.15 1011.17 1011.99 1012.51 1012.76 1013.08 1013.46 1012.61 1012.38 1012.37 1012.29 1012.27 1012.00 1011.62 1011.96 1012.47 1013.21 1013.88 1014.23 1014.14 1013.43 1013.31 1014.06 1014.34 1014.79 1014.71 1014.65 1014.51 1013.97 1013.52 1012.71
1016.32 1015.58 1014.89 1014.23 1013.68 1013.18 1012.50 1012.13 1011.10 1010.33 1009.81 1009.55 1009.05 1008.84 1008.41 1008.73 1010.37 1010.56 1011.77 1012.48 1012.78 1013.18 1013.78 1012.56 1012.11 1011.57 1011.65 1011.86 1011.74 1011.10 1011.45 1012.00 1012.97 1013.34 1014.06 1013.81 1013.32 1013.45 1013.72 1013.88 1014.34 1014.11 1014.00 1014.10 1014.09 1014.08 1013.08
1016.08 1015.37 1014.59 1013.85 1013.26 1012.59 1011.99 1011.42 1010.58 1009.88 1009.54 1008.96 1008.43 1007.98 1007.60 1007.89 1008.83 1010.35 1010.76 1011.99 1012.78 1013.52 1013.77 1012.07 1011.82 1011.64 1011.44 1011.82 1011.34 1011.23 1011.17 1011.61 1012.11 1012.97 1013.86 1013.17 1013.06 1012.98 1013.02 1012.98 1013.61 1013.43 1013.45 1013.64 1013.68 1013.55 1013.03
1015.74 1015.01 1014.39 1013.60 1012.64 1011.75 1011.14 1010.70 1010.07 1009.33 1008.78 1008.59 1008.27 1007.63 1007.37 1007.00 1008.42 1009.28 1010.20 1011.50 1012.92 1014.05 1012.71 1011.70 1011.74 1011.66 1011.75 1011.64 1011.39 1011.40 1011.45 1011.74 1012.12 1012.66 1012.78 1012.62 1012.67 1012.73 1012.33 1012.44 1013.04 1013.04 1013.42 1013.47 1013.35 1013.35 1011.86
1015.20 1014.43 1013.90 1013.03 1012.23 1011.46 1010.45 1010.03 1009.37 1008.67 1008.06 1007.50 1007.27 1006.92 1007.13 1005.57 1007.67 1009.02 1009.75 1011.44 1013.04 1013.00 1011.52 1011.57 1011.38 1011.57 1011.67 1011.60 1011.53 1011.48 1011.75 1011.65 1012.01 1012.45 1012.50 1012.68 1012.31 1012.48 1012.28 1012.31 1012.38 1013.11 1013.29 1013.08 1013.09 1012.50 1010.61
1014.84 1014.09 1013.46 1012.49 1011.67 1010.72 1009.86 1009.40 1008.64 1007.78 1005.99 1005.54 1005.92 1006.30 1006.37 1005.10 1006.75 1008.34 1009.07 1010.84 1011.47 1010.54 1010.86 1010.69 1010.95 1011.43 1011.57 1011.37 1011.35 1011.44 1011.72 1011.67 1011.79 1012.26 1012.44 1012.15 1011.96 1011.62 1011.68 1011.22 1011.35 1011.83 1012.14 1012.08 1011.85 1011.34 1010.14
1014.56 1013.78 1012.97 1011.99 1011.17 1010.15 1009.53 1008.73 1008.12 1006.05 1005.37 1005.13 1005.64 1005.82 1005.96 1005.17 1006.28 1007.59 1008.72 1009.87 1009.35 1009.12 1009.47 1010.09 1010.74 1011.11 1011.14 1010.98 1011.33 1011.50 1011.21 1010.96 1010.78 1011.57 1012.13 1011.79 1011.28 1010.61 1010.70 1010.42 1010.76 1011.37 1011.35 1010.82 1011.39 1010.92 1010.03
1014.18 1013.43 1012.58 1011.48 1010.60 1009.84 1009.11 1008.35 1007.08 1005.90 1005.42 1005.28 1005.55 1005.25 1004.70 1005.22 1006.15 1007.63 1008.49 1008.74 1008.58 1008.40 1008.68 1009.38 1009.85 1010.21 1010.28 1010.57 1011.13 1011.17 1010.90 1010.17 1010.31 1010.22 1010.85 1010.96 1010.91 1010.29 1010.19 1010.44 1010.59 1010.62 1010.49 1010.90 1010.98 1010.63 1009.62
1013.79 1013.06 1012.21 1011.19 1010.28 1009.67 1008.83 1007.72 1006.75 1005.71 1005.28 1005.38 1005.52 1005.74 1004.70 1005.09 1006.08 1007.59 1007.74 1008.06 1008.20 1008.20 1008.13 1008.81 1009.21 1009.54 1009.74 1010.09 1010.42 1010.68 1010.37 1009.61 1009.19 1009.28 1009.62 1010.52 1011.01 1010.65 1010.25 1009.62 1009.47 1010.15 1009.98 1009.90 1009.85 1009.64 1008.55
1013.44 1012.68 1011.96 1010.95 1010.13 1009.39 1008.43 1007.48 1006.62 1005.70 1004.97 1005.09 1005.38 1005.42 1004.15 1005.01 1006.17 1007.02 1007.40 1007.63 1007.51 1007.95 1008.14 1008.40 1008.79 1008.94 1009.19 1009.48 1009.83 1010.22 1009.85 1008.91 1008.38 1009.15 1010.06 1010.22 1010.28 1009.70 1008.74 1008.57 1008.54 1008.32 1008.39 1009.11 1008.78 1008.54 1007.86
1013.11 1012.32 1011.59 1010.74 1009.87 1009.00 1008.19 1007.20 1006.41 1005.47 1005.20 1005.54 1004.80 1004.32 1004.28 1004.42 1005.50 1006.23 1007.03 1007.19 1007.36 1007.82 1007.92 1008.17 1008.44 1008.67 1008.51 1008.75 1009.27 1009.14 1008.63 1007.43 1007.79 1008.47 1008.62 1009.19 1009.27 1008.88 1008.04 1008.12 1008.32 1007.67 1007.63 1007.87 1008.31 1007.86 1006.50
1012.84 1012.12 1011.42 1010.68 1009.84 1008.87 1008.15 1007.15 1005.88 1005.33 1004.55 1004.52 1004.25 1004.27 1004.39 1005.26 1005.19 1005.47 1006.23 1006.94 1007.30 1007.48 1007.67 1007.87 1008.04 1008.23 1008.24 1008.28 1008.40 1008.27 1007.83 1006.64 1006.71 1007.14 1007.66 1008.29 1008.47 1007.72 1006.56 1006.09 1006.04 1006.47 1006.40 1007.14 1007.52 1006.99 1005.29
1012.54 1011.86 1011.13 1010.53 1009.69 1008.82 1007.99 1007.14 1005.99 1004.58 1003.55 1003.25 1003.85 1004.03 1004.00 1004.06 1004.84 1005.19 1005.93 1006.24 1006.64 1006.97 1007.35 1007.35 1007.53 1007.47 1007.52 1007.53 1007.66 1007.44 1007.00 1006.30 1006.41 1006.71 1007.50 1008.26 1007.60 1006.76 1005.67 1005.00 1004.90 1004.74 1004.76 1005.31 1005.53 1004.66 1004.53
1012.15 1011.46 1010.83 1010.27 1009.45 1008.77 1008.20 1007.35 1006.16 1005.04 1003.83 1003.23 1003.09 1002.85 1003.31 1003.90 1004.38 1005.12 1005.78 1005.94 1005.96 1006.28 1006.77 1006.94 1006.90 1006.66 1006.84 1006.66 1006.25 1006.13 1006.00 1005.96 1005.87 1006.71 1007.14 1007.53 1006.87 1006.03 1004.52 1002.55 1002.28 1003.07 1003.66 1003.68 1004.02 1004.07 1003.58
1011.79 1011.04 1010.42 1009.74 1009.24 1008.54 1007.93 1007.00 1006.07 1005.65 1004.85 1003.77 1002.59 1002.35 1002.68 1003.68 1004.22 1004.83 1004.79 1005.10 1005.31 1005.69 1006.04 1005.92 1006.09 1006.27 1005.79 1005.57 1005.73 1005.37 1005.83 1005.72 1005.45 1005.43 1006.35 1006.89 1006.46 1005.45 1003.39 1002.09 1002.09 1002.44 1000.96 1001.63 1002.23 1002.75 1002.91
1011.52 1010.78 1010.12 1009.53 1009.02 1008.40 1007.77 1007.01 1006.23 1005.66 1004.99 1004.12 1003.40 1003.06 1003.14 1003.81 1003.83 1003.88 1004.60 1004.93 1005.16 1005.36 1005.53 1005.50 1005.66 1005.56 1005.06 1004.93 1004.69 1004.92 1005.24 1005.13 1004.66 1004.61 1004.89 1005.44 1005.41 1004.73 1003.17 1002.09 1001.51 1000.43 999.88 1000.21 1001.11 1001.60 1002.26
1011.28 1010.42 1009.98 1009.30 1008.68 1008.25 1007.51 1006.73 1006.04 1005.25 1004.49 1003.84 1003.11 1003.25 1002.75 1003.27 1003.61 1004.00 1004.40 1004.60 1004.92 1005.20 1005.39 1005.08 1005.15 1004.99 1004.96 1005.23 1005.01 1004.47 1004.51 1004.75 1004.21 1003.86 1004.10 1004.28 1004.30 1003.75 1002.99 1001.88 1000.66 1000.04 1000.03 1000.14 1000.50 1000.89 1001.49
1011.08 1010.26 1009.64 1009.22 1008.64 1007.97 1007.37 1006.78 1006.00 1004.98 1004.08 1003.50 1002.91 1003.06 1002.53 1002.84 1003.20 1002.97 1003.78 1004.11 1004.52 1004.76 1004.96 1004.79 1004.85 1004.99 1005.27 1004.78 1004.62 1004.25 1004.04 1003.80 1003.93 1003.50 1003.70 1004.07 1003.99 1003.73 1002.98 1002.26 1000.97 1000.05 999.76 999.81 1000.93 1000.73 999.59
1010.85 1010.13 1009.54 1009.09 1008.48 1008.00 1007.41 1006.63 1005.79 1005.17 1004.74 1004.05 1002.98 1002.77 1002.46 1002.91 1002.82 1002.71 1003.11 1003.46 1003.79 1004.24 1004.69 1005.01 1005.04 1004.81 1004.60 1004.34 1004.20 1004.07 1003.74 1003.55 1003.66 1003.58 1003.48 1003.48 1003.36 1003.27 1002.95 1002.41 1000.80 999.88 1000.00 1000.30 1001.47 1000.33 999.44
1010.57 1009.97 1009.35 1009.02 1008.46 1007.98 1007.39 1006.81 1006.07 1005.53 1004.95 1004.31 1003.42 1003.04 1002.84 1002.92 1002.81 1002.74 1002.75 1002.99 1003.56 1003.85 1004.24 1004.75 1005.03 1004.44 1003.91 1003.74 1003.83 1003.48 1003.24 1003.32 1003.25 1002.93 1002.63 1002.68 1002.56 1002.68 1002.65 1002.36 1001.11 999.77 999.57 1000.01 1000.13 1000.06 1000.27
1010.23 1009.77 1009.28 1008.79 1008.39 1007.82 1007.28 1006.79 1006.19 1005.62 1004.99 1004.30 1003.36 1003.21 1002.77 1003.17 1003.46 1003.17 1002.86 1002.62 1002.67 1002.95 1003.63 1004.22 1004.27 1004.11 1003.29 1003.38 1003.51 1002.92 1002.84 1003.29 1003.20 1002.98 1002.39 1002.63 1002.04 1001.97 1001.81 1001.20 1000.41 1000.06 1000.05 1000.04 1000.24 1000.65 1000.94
Thickness
5546 5547 5548 5548 5549 5554 5556 5560 5560 5561 5565 5567 5569 5569 5570 5570 5570 5570 5572 5576 5579 5580 5581 5586 5591 5595 5597 5595 5606 5623 5624 5624 5628 5623 5618 5611 5608 5606 5604 5609 5615 5612 5627 5634 5640 5643 5646
5535 5536 5538 5539 5541 5545 5548 5552 5556 5557 5560 5563 5565 5566 5568 5567 5566 5566 5567 5570 5573 5574 5576 5580 5583 5587 5589 5583 5612 5616 5615 5615 5615 5612 5609 5606 5601 5601 5598 5601 5601 5611 5616 5622 5628 5634 5638
5527 5527 5529 5531 5533 5535 5538 5543 5548 5552 5554 5558 5561 5563 5564 5563 5562 5562 5563 5564 5566 5568 5570 5573 5576 5579 5579 5593 5605 5608 5606 5606 5606 5605 5600 5599 5597 5594 5596 5597 5601 5605 5602 5613 5620 5626 5628
5519 5519 5519 5520 5522 5526 5529 5533 5538 5543 5549 5552 5556 5558 5559 5558 5557 5557 5558 5559 5560 5561 5563 5566 5569 5570 5571 5593 5596 5596 5597 5596 5599 5597 5597 5597 5594 5585 5586 5595 5594 5593 5592 5595 5619 5621 5624
5509 5508 5509 5509 5511 5514 5518 5522 5528 5533 5539 5546 5550 5553 5555 5554 5552 5551 5551 5551 5554 5554 5555 5558 5560 5562 5567 5586 5588 5592 5591 5589 5590 5589 5588 5590 5587 5581 5581 5578 5581 5586 5587 5590 5599 5616 5617
5501 5500 5497 5496 5497 5500 5504 5507 5514 5520 5527 5536 5542 5545 5548 5550 5546 5544 5543 5543 5545 5546 5548 5550 5556 5553 5569 5580 5583 5585 5585 5583 5580 5579 5576 5575 5572 5569 5567 5569 5575 5577 5570 5576 5580 5601 5602
5486 5482 5480 5480 5480 5480 5484 5489 5495 5503 5511 5522 5531 5537 5540 5542 5541 5538 5535 5532 5532 5533 5538 5552 5561 5563 5571 5575 5579 5577 5578 5572 5571 5567 5556 5561 5559 5562 5566 5555 5558 5555 5558 5564 5569 5583 5582
5472 5467 5460 5460 5459 5457 5460 5464 5472 5482 5493 5504 5515 5526 5530 5534 5532 5530 5528 5530 5530 5537 5537 5545 5549 5554 5563 5565 5567 5570 5570 5561 5558 5549 5545 5546 5547 5556 5555 5547 5546 5546 5549 5554 5560 5568 5570
5459 5454 5447 5440 5432 5426 5428 5439 5447 5457 5470 5485 5496 5509 5518 5523 5522 5521 5524 5521 5525 5528 5524 5543 5545 5548 5549 5556 5559 5562 5560 5553 5548 5539 5535 5539 5556 5556 5547 5541 5535 5533 5532 5538 5544 5549 5557
5446 5436 5423 5412 5406 5402 5404 5405 5422 5433 5447 5461 5479 5495 5506 5510 5506 5516 5515 5512 5514 5518 5487 5532 5536 5545 5548 5550 5549 5559 5557 5552 5545 5540 5530 5536 5548 5542 5536 5532 5526 5527 5534 5531 5531 5528 5534
5426 5411 5398 5389 5384 5383 5386 5387 5400 5414 5425 5445 5465 5484 5500 5502 5508 5507 5511 5504 5505 5504 5463 5529 5535 5538 5543 5542 5548 5546 5549 5546 5542 5531 5518 5529 5523 5527 5525 5533 5521 5525 5526 5520 5521 5520 5520
5405 5390 5380 5375 5371 5371 5373 5376 5386 5400 5413 5431 5452 5472 5489 5497 5495 5501 5499 5499 5497 5476 5469 5523 5526 5530 5531 5534 5539 5537 5537 5536 5529 5521 5521 5520 5521 5517 5521 5523 5513 5516 5510 5507 5511 5512 5517
5391 5380 5370 5364 5359 5361 5367 5371 5379 5390 5406 5424 5449 5469 5479 5502 5494 5491 5493 5490 5479 5464 5520 5521 5526 5521 5523 5527 5530 5530 5521 5521 5518 5510 5503 5499 5504 5505 5506 5503 5505 5500 5498 5498 5500 5500 5514
5381 5373 5363 5359 5360 5365 5372 5376 5380 5388 5413 5431 5446 5462 5477 5499 5492 5485 5489 5482 5455 5508 5507 5527 5521 5516 5513 5522 5526 5524 5516 5509 5509 5494 5491 5490 5489 5494 5496 5501 5499 5494 5498 5496 5493 5485 5499
5374 5366 5360 5362 5365 5370 5370 5376 5381 5398 5413 5429 5443 5461 5474 5490 5488 5484 5484 5480 5492 5513 5522 5522 5521 5512 5516 5524 5520 5510 5512 5511 5507 5490 5483 5479 5476 5486 5488 5498 5494 5484 5485 5508 5493 5497 5502
5371 5363 5359 5365 5368 5371 5374 5382 5391 5397 5409 5426 5441 5459 5477 5483 5486 5481 5479 5481 5502 5520 5523 5522 5510 5517 5524 5520 5510 5507 5504 5507 5503 5500 5496 5492 5467 5489 5488 5489 5484 5482 5496 5485 5481 5484 5483
5368 5361 5359 5364 5367 5370 5376 5384 5391 5401 5411 5423 5438 5454 5473 5479 5481 5473 5478 5490 5502 5514 5521 5515 5514 5518 5525 5513 5511 5504 5508 5512 5511 5506 5506 5493 5478 5477 5476 5483 5488 5482 5480 5484 5491 5484 5493
5366 5359 5357 5362 5365 5371 5378 5382 5391 5403 5417 5431 5442 5450 5476 5478 5478 5473 5480 5489 5509 5506 5513 5513 5516 5521 5517 5513 5509 5495 5495 5510 5516 5504 5491 5489 5480 5480 5494 5497 5498 5497 5493 5485 5487 5481 5498
5366 5360 5355 5358 5365 5374 5382 5392 5397 5408 5418 5429 5450 5465 5470 5481 5473 5477 5486 5497 5504 5502 5509 5512 5513 5513 5521 5518 5510 5501 5507 5527 5517 5505 5497 5495 5487 5486 5496 5486 5482 5480 5492 5496 5492 5494 5508
5365 5358 5353 5354 5361 5372 5383 5396 5407 5415 5431 5439 5456 5458 5473 5473 5481 5494 5496 5497 5498 5506 5507 5508 5509 5511 5514 5512 5514 5514 5513 5533 5526 5522 5518 5504 5490 5496 5508 5509 5500 5488 5488 5486 5488 5488 5520
5365 5359 5356 5356 5362 5374 5386 5397 5411 5431 5448 5461 5463 5467 5478 5482 5483 5495 5497 5504 5503 5505 5505 5511 5507 5511 5514 5516 5517 5510 5520 5530 5528 5525 5511 5490 5495 5495 5500 5506 5500 5507 5509 5503 5493 5516 5518
5368 5363 5362 5363 5371 5377 5385 5398 5415 5432 5449 5463 5476 5485 5489 5492 5496 5495 5495 5498 5509 5509 5504 5503 5509 5516 5515 5520 5526 5524 5531 5528 5529 5517 5511 5497 5496 5501 5517 5537 5531 5522 5513 5517 5517 5526 5537
5371 5368 5369 5375 5379 5387 5394 5406 5419 5430 5444 5462 5479 5489 5493 5496 5496 5497 5504 5509 5510 5515 5513 5519 5513 5511 5524 5525 5525 5530 5523 5528 5535 5530 5516 5498 5502 5521 5548 5551 5541 5541 5554 5547 5547 5545 5550
5371 5370 5373 5381 5386 5393 5403 5413 5424 5434 5446 5460 5473 5483 5492 5490 5500 5508 5504 5508 5506 5510 5513 5516 5518 5516 5528 5528 5532 5530 5524 5528 5535 5536 5535 5523 5520 5528 5549 5551 5560 5566 5569 5567 5560 5560 5554
5370 5372 5375 5384 5393 5399 5408 5420 5431 5442 5453 5465 5478 5482 5495 5499 5502 5500 5503 5506 5507 5505 5508 5515 5520 5522 5521 5522 5525 5537 5535 5539 5537 5541 5538 5542 5543 5548 5553 5554 5572 5573 5566 5567 5566 5566 5566
5368 5371 5377 5384 5393 5404 5413 5422 5433 5445 5458 5471 5480 5482 5496 5500 5504 5513 5509 5509 5507 5508 5512 5516 5515 5512 5513 5527 5529 5539 5536 5549 5551 5555 5541 5541 5546 5550 5553 5555 5566 5579 5578 5579 5575 5575 5596
5367 5368 5374 5383 5393 5401 5412 5423 5434 5445 5454 5465 5480 5487 5494 5496 5503 5510 5506 5507 5513 5510 5507 5507 5510 5514 5516 5526 5534 5536 5536 5547 5549 5556 5554 5549 5554 5555 5555 5559 5561 5580 5580 5577 5564 5588 5604
5364 5365 5372 5378 5390 5400 5410 5421 5433 5442 5452 5463 5477 5484 5491 5493 5503 5509 5513 5510 5508 5510 5512 5508 5508 5515 5523 5531 5533 5540 5546 5546 5547 5555 5563 5562 5563 5560 5559 5554 5550 5586 5592 5588 5588 5589 5590
5360 5361 5367 5376 5387 5399 5410 5420 5431 5441 5452 5463 5478 5481 5489 5492 5497 5501 5508 5516 5518 5518 5512 5506 5513 5513 5526 5529 5529 5540 5549 5536 5540 5546 5554 5557 5565 5563 5566 5567 5580 5584 5587 5589 5588 5587 5585